DateTimeUTC,F1_A11,F1_S11,BsB_S11,BsG_S11,BsR_S11,BbsB_S11,BbsG_S11,BbsR_S11,BaB_A11,BaG_A11,BaR_A11,Tu_S11,T_S11,Uu_S11,U_S11,P_S11,T1_A11
2021-05-19T09:00:00Z,00000200,20000000,,,,,,,-000.08,0000.73,0000.34,16.9,23.7,04.0,02.6,0678.6,30.9
2021-05-19T09:01:00Z,00000200,20000000,,,,,,,0000.28,-000.16,0000.02,16.9,23.7,04.0,02.6,0678.6,30.9
2021-05-19T09:02:00Z,00000200,20000000,,,,,,,-000.05,0000.11,0000.14,16.9,23.7,04.0,02.6,0678.6,30.9
2021-05-19T09:03:00Z,00000200,60000000,,,,,,,0000.98,0000.84,0000.33,16.9,23.7,04.0,02.6,0678.6,30.9
2021-05-19T09:04:00Z,00000200,40000000,0001.03,0000.75,0000.41,0000.67,-000.04,0000.00,0000.34,0000.40,0000.82,17.1,23.6,04.5,03.0,0679.5,30.9
2021-05-19T09:05:00Z,00000200,00000000,0001.09,0000.81,0000.63,0000.28,0000.13,0000.17,-000.13,0000.01,-000.20,17.1,23.6,04.4,03.0,0679.6,30.9
2021-05-19T09:06:00Z,00000200,00000000,0000.77,0000.82,0000.56,-000.24,0000.34,0000.08,0000.28,-000.14,-000.31,17.1,23.5,04.3,02.9,0679.7,30.9
2021-05-19T09:07:00Z,00000200,00000000,0001.24,0000.62,0000.58,0000.10,0000.10,0000.34,0000.59,0000.41,0000.18,17.1,23.6,04.1,02.8,0679.7,30.9
2021-05-19T09:08:00Z,00000200,00000000,0000.82,0000.78,0000.61,0000.19,0000.35,-000.00,0000.17,0000.28,0000.73,17.1,23.6,04.2,02.8,0679.7,30.9
2021-05-19T09:09:00Z,00000200,00000000,0001.40,0000.69,0000.66,-000.12,-000.05,0000.38,0000.92,0000.69,0000.37,17.2,23.6,04.3,02.9,0679.7,30.9
2021-05-19T09:10:00Z,00000200,00000000,0000.95,0000.81,0000.69,0000.57,0000.14,-000.20,0000.64,0000.63,0000.74,17.2,23.6,04.4,02.9,0679.6,30.9
2021-05-19T09:11:00Z,00000200,00000000,0001.20,0000.80,0000.65,0000.05,0000.18,0000.23,0000.45,0000.58,0000.18,17.2,23.6,04.6,03.1,0679.6,30.9
2021-05-19T09:12:00Z,00000200,00000000,0001.28,0000.67,0000.89,0000.49,0000.25,0000.18,0000.39,0000.67,0000.19,17.2,23.6,04.6,03.1,0679.6,30.9
2021-05-19T09:13:00Z,00000200,00000000,0000.84,0000.83,0000.84,0000.03,0000.33,0000.23,0000.57,0000.15,0000.91,17.2,23.6,04.9,03.3,0679.6,30.9
2021-05-19T09:14:00Z,00000200,00000000,0001.12,0000.87,0000.71,0000.24,0000.02,0000.12,0000.46,0001.20,0000.49,17.2,23.6,05.0,03.4,0679.6,30.9
2021-05-19T09:15:00Z,00000200,00000000,0001.45,0000.99,0000.69,0000.05,0000.37,0000.06,0000.50,-000.08,0000.32,17.2,23.6,05.2,03.5,0679.6,30.9
2021-05-19T09:16:00Z,00000200,00000000,0001.27,0000.99,0000.47,0000.98,0000.12,0000.09,0000.34,0000.50,0000.08,17.2,23.6,05.2,03.5,0679.6,30.9
2021-05-19T09:17:00Z,00000200,00000000,0001.33,0001.28,0000.71,0000.38,0000.14,0000.07,0000.33,0000.18,-000.19,17.2,23.6,05.1,03.5,0679.6,30.9
2021-05-19T09:18:00Z,00000200,00000000,0001.04,0000.85,0000.95,0000.05,0000.27,0000.21,0000.36,0000.33,0000.33,17.2,23.6,05.0,03.4,0679.6,30.9
2021-05-19T09:19:00Z,00000200,00000000,0001.12,0000.73,0000.56,0000.14,0000.16,0000.07,0000.12,-000.02,0000.09,17.3,23.6,05.0,03.4,0679.6,30.9
2021-05-19T09:20:00Z,00000200,00000000,0001.68,0000.68,0000.80,0000.19,0000.09,-000.30,0000.42,0000.30,0000.20,17.3,23.6,04.9,03.3,0679.6,30.9
2021-05-19T09:21:00Z,00000200,00000000,0001.32,0000.72,0000.71,0000.37,0000.21,0000.07,-000.22,0000.13,0000.15,17.3,23.6,04.9,03.3,0679.6,30.9
2021-05-19T09:22:00Z,00000200,00000000,0001.07,0000.66,0000.82,0000.17,-000.02,-000.14,0000.22,-000.02,-000.06,17.3,23.6,04.7,03.2,0679.6,30.9
2021-05-19T09:23:00Z,00000200,00000000,0001.15,0000.76,0000.82,0000.73,0000.06,-000.16,0000.53,0000.43,0000.18,17.3,23.6,04.5,03.1,0679.6,30.9
2021-05-19T09:24:00Z,00000200,00000000,0001.14,0000.84,0000.87,0000.55,0000.12,0000.10,0000.44,0000.24,0000.20,17.3,23.6,04.5,03.0,0679.6,30.9
2021-05-19T09:25:00Z,00000200,00000000,0000.94,0000.98,0000.58,0000.58,0000.13,-000.03,0000.36,0000.07,0000.04,17.4,23.7,04.4,03.0,0679.6,30.9
2021-05-19T09:26:00Z,00000200,00000000,0001.58,0000.95,0000.95,-000.08,0000.11,0000.01,-000.09,0000.27,0000.04,17.4,23.7,04.1,02.8,0679.6,30.9
2021-05-19T09:27:00Z,00000200,00000000,0001.11,0000.53,0000.77,0000.60,0000.21,0000.04,-000.05,-000.39,-000.13,17.4,23.7,03.9,02.7,0679.6,30.9
2021-05-19T09:28:00Z,00000200,00000000,0001.52,0000.74,0000.87,0000.31,0000.18,0000.24,-000.18,-000.02,-000.23,17.4,23.7,03.6,02.4,0679.6,30.9
2021-05-19T09:29:00Z,00000200,00000000,0001.07,0000.93,0000.35,0000.37,0000.20,0000.09,0000.33,-000.16,-000.18,17.4,23.7,03.3,02.3,0679.6,30.9
2021-05-19T09:30:00Z,00000200,00000000,0001.01,0001.04,0000.75,0000.11,0000.08,-000.02,0000.46,0000.26,0000.25,17.4,23.7,03.2,02.2,0679.6,30.9
2021-05-19T09:31:00Z,00000200,00000000,0001.71,0000.61,0000.83,0000.42,0000.26,0000.24,0000.48,0000.56,0000.07,17.4,23.7,03.1,02.1,0679.7,30.9
2021-05-19T09:32:00Z,00000200,00000000,0000.90,0000.59,0000.58,0000.39,0000.03,0000.37,0000.54,0000.57,0000.70,17.4,23.7,03.0,02.1,0679.7,30.9
2021-05-19T09:33:00Z,00000200,00000000,0000.91,0000.61,0000.70,0000.13,0000.18,0000.06,0000.56,0000.75,0000.31,17.4,23.7,02.9,02.0,0679.6,30.9
2021-05-19T09:34:00Z,00000200,00000000,0000.47,0000.79,0000.62,0000.37,-000.00,0000.11,0000.83,0000.77,0000.58,17.5,23.7,02.8,01.9,0679.6,30.9
2021-05-19T09:35:00Z,00000200,00000000,0001.42,0000.98,0000.91,0000.24,0000.06,0000.26,0000.78,0000.41,0000.54,17.5,23.7,02.9,01.9,0679.6,30.9
2021-05-19T09:36:00Z,00000200,00000000,0000.60,0000.66,0000.56,0000.26,0000.20,0000.03,0000.05,-000.00,0000.40,17.5,23.7,02.8,01.9,0679.6,30.9
2021-05-19T09:37:00Z,00000200,00000000,0001.39,0000.56,0000.70,0000.50,0000.21,0000.08,0000.45,0000.46,-000.26,17.5,23.8,02.8,01.9,0679.6,30.9
2021-05-19T09:38:00Z,00000200,00000000,0002.08,0001.08,0000.64,0000.34,0000.39,-000.12,0000.48,0000.12,0000.34,17.5,23.8,02.8,01.9,0679.6,30.9
2021-05-19T09:39:00Z,00000200,00000000,0000.99,0000.93,0000.84,0000.41,-000.11,0000.15,0000.11,0000.52,0000.20,17.5,23.8,02.7,01.8,0679.5,30.9
2021-05-19T09:40:00Z,00000200,00000000,0001.45,0000.66,0000.82,0000.73,-000.05,-000.03,-000.02,0000.17,0000.10,17.5,23.8,02.6,01.8,0679.5,30.9
2021-05-19T09:41:00Z,00000200,00000000,0001.57,0000.92,0000.83,0000.25,-000.25,0000.02,0000.27,-000.11,0000.24,17.5,23.8,02.6,01.8,0679.5,30.9
2021-05-19T09:42:00Z,00000200,00000000,0001.01,0000.73,0000.75,0000.43,0000.22,-000.13,0000.34,0000.63,0000.15,17.6,23.8,02.5,01.7,0679.5,30.9
2021-05-19T09:43:00Z,00000200,00000000,0001.44,0000.98,0000.72,0000.43,0000.11,0000.09,0000.47,-000.21,0000.00,17.6,23.8,02.4,01.7,0679.5,30.9
2021-05-19T09:44:00Z,00000200,00000000,0001.68,0000.89,0000.57,0000.45,0000.22,0000.12,0000.33,0000.76,0000.18,17.6,23.8,02.4,01.7,0679.5,30.9
2021-05-19T09:45:00Z,00000200,00000000,0000.79,0000.71,0000.68,-000.04,0000.14,0000.09,0000.25,-000.07,0000.29,17.6,23.8,02.4,01.6,0679.5,30.9
2021-05-19T09:46:00Z,00000200,00000000,0001.75,0000.92,0000.82,0000.04,0000.39,0000.25,0000.43,0000.32,0000.01,17.6,23.8,02.4,01.6,0679.5,30.9
2021-05-19T09:47:00Z,00000200,00000000,0000.67,0000.84,0000.65,0000.46,-000.05,-000.15,0000.05,0000.22,0000.32,17.6,23.8,02.3,01.6,0679.5,30.9
2021-05-19T09:48:00Z,00000200,00000000,0000.90,0000.62,0000.47,0000.24,0000.21,0000.12,0000.28,-000.03,0000.13,17.6,23.8,02.3,01.6,0679.5,30.9
2021-05-19T09:49:00Z,00000200,00000000,0001.18,0000.75,0000.81,0000.55,-000.05,0000.19,0000.36,0000.65,0000.37,17.6,23.8,02.3,01.6,0679.5,30.9
2021-05-19T09:50:00Z,00000200,00000000,0001.50,0000.64,0000.52,0000.01,0000.11,0000.33,0000.15,0000.25,0000.21,17.6,23.8,02.3,01.6,0679.5,30.9
2021-05-19T09:51:00Z,00000200,00000000,0001.87,0000.86,0000.94,0000.07,0000.17,0000.24,0000.63,0000.35,0000.12,17.6,23.8,02.1,01.4,0679.5,30.9
2021-05-19T09:52:00Z,00000200,00000000,0001.50,0001.00,0000.65,0000.26,0000.11,-000.05,0000.32,0000.01,0000.05,17.6,23.8,02.2,01.5,0679.5,30.9
2021-05-19T09:53:00Z,00000200,00000000,0001.63,0000.71,0000.58,0000.16,0000.46,-000.21,0000.27,0000.67,0000.71,17.6,23.8,02.2,01.5,0679.5,30.9
2021-05-19T09:54:00Z,00000200,00000000,0001.07,0001.22,0000.83,0000.32,0000.40,0000.09,0000.46,0000.26,0000.10,17.7,23.8,02.2,01.5,0679.5,30.9
2021-05-19T09:55:00Z,00000200,00000000,0001.47,0001.32,0000.37,0000.90,0000.22,-000.06,0000.23,0000.29,0000.61,17.6,23.8,02.2,01.5,0679.5,30.9
2021-05-19T09:56:00Z,00000200,00000000,0001.25,0001.04,0001.18,0000.16,0000.13,0000.07,0000.75,0000.82,-000.37,17.7,23.8,02.2,01.5,0679.5,30.9
2021-05-19T09:57:00Z,00000200,40000000,,,,,,,0000.40,0000.33,0001.30,17.7,23.9,01.6,01.1,0679.5,30.9
2021-05-19T09:58:00Z,00000200,60000000,,,,,,,-000.18,-000.27,-000.65,17.5,24.0,02.5,01.7,0678.5,30.9
2021-05-19T09:59:00Z,00000200,20000000,,,,,,,-000.10,-000.06,-000.11,17.5,24.1,02.3,01.6,0678.5,30.9
